Volver al catálogo

STARLINK-5433

ActivoComunicacionesVLEO
NORAD 54793·PAYLOAD·🇺🇸 United States

Lanzado Dec 17, 2022 desde Cape Canaveral Space Force Station

Loading…

Próximos Pases (próximas 24 horas)

TLE

ActualizadoSource: CelesTrak SupGP

Época: Sep 14, 2026, 13:32 UTC

1 54793C 22175AM  26257.56437500 -.00021920  00000+0 -62735-3 0  2575
2 54793  53.1576 245.3826 0001251  84.6905  88.5417 15.35398827    13

Sigue STARLINK-5433 en tiempo real con AllMySat

Download on the App Store